Aérodrome :
LOGIN :

S'inscrire | Disclaimer

   EN    FR    IT 

 










Légende :    VFR   VFR Marginal   IFR   IFR Intensif   IFR Très Intensif
Visi : 
Plafond : 
>= 8 km
>= 3000ft
5 à 8 km
1000 à 3000 ft
1500m à 5 km
500 à 1000 ft
800 à 1500m
200 à 500 ft
< 800m
< 200 ft
Symboles :   Orages  Brouillard  Fortes neiges  Fortes précipitations  Vent > 20 kt
SIGMETs :   Divers  Orages  Givrage  Turbulence  Onde Orograph.  Cendres Volcan.






- Altitude de l'aérodrome : 18 ft


LIPC - Cervia AFB Ravenna

DERNIER METAR :
  • 160455Z 17003KT 9999 BKN060 14/12 Q1008 RMK BKN VIS MIN 9999 WIND THR11 17003KT WIND THR29 17003KT BLU

METARs EXPIRÉS :
  • 160355Z 21003KT 9999 FEW060 14/11 Q1008 RMK FEW VIS MIN 9999 WIND THR11 21003KT WIND THR29 20003KT BLU
  • 160255Z 20003KT 9999 FEW060 14/11 Q1008

TAF TAF LIPC
Valide du 16 à 03h jusqu'au 16 à 12h UTC


160200Z 1603/1612 24010KT 9999 SCT040



MET'MAP, la Météo Aéronautique d'un coup d'oeil ! - Copyright ORBIFLY Décembre 2007 - Disclaimer

ORBIFLY MET'MAP TEAM :

Programmation & Développement : Alexandra Zaïnal
Sur une idée originale de : Baudouin d'Aumeries
Assistance à la programmation : Marc-Olivier Méhu
Soutien technique & logistique : Manuel Goepfert

Contact : metmap@orbifly.com




SOURCES & CREDITS :

   NOAA